Year,Month,Day,Hour,Minute,Value (Times are PST for temperature in C)
2021,08,12,00,00,20.90
2021,08,12,00,01,20.90
2021,08,12,00,02,20.90
2021,08,12,00,03,20.90
2021,08,12,00,04,20.90
2021,08,12,00,05,20.90
2021,08,12,00,06,20.90
2021,08,12,00,07,20.90
2021,08,12,00,08,20.90
2021,08,12,00,09,20.90
2021,08,12,00,10,20.80
2021,08,12,00,11,20.80
2021,08,12,00,12,20.80
2021,08,12,00,13,20.80
2021,08,12,00,14,20.80
2021,08,12,00,15,20.80
2021,08,12,00,16,20.70
2021,08,12,00,17,20.70
2021,08,12,00,18,20.70
2021,08,12,00,19,20.70
2021,08,12,00,20,20.70
2021,08,12,00,21,20.70
2021,08,12,00,22,20.70
2021,08,12,00,23,20.70
2021,08,12,00,24,20.80
2021,08,12,00,25,20.80
2021,08,12,00,26,20.80
2021,08,12,00,27,20.80
2021,08,12,00,28,20.90
2021,08,12,00,29,20.90
2021,08,12,00,30,20.90
2021,08,12,00,31,21.00
2021,08,12,00,32,21.00
2021,08,12,00,33,21.00
2021,08,12,00,34,21.10
2021,08,12,00,35,21.10
2021,08,12,00,36,21.10
2021,08,12,00,37,21.20
2021,08,12,00,38,21.20
2021,08,12,00,39,21.30
2021,08,12,00,40,21.30
2021,08,12,00,41,21.30
2021,08,12,00,42,21.30
2021,08,12,00,43,21.30
2021,08,12,00,44,21.20
2021,08,12,00,45,21.20
2021,08,12,00,46,21.20
2021,08,12,00,47,21.20
2021,08,12,00,48,21.20
2021,08,12,00,49,21.10
2021,08,12,00,50,21.10
2021,08,12,00,51,21.10
2021,08,12,00,52,21.10
2021,08,12,00,53,21.10
2021,08,12,00,54,21.10
2021,08,12,00,55,21.20
2021,08,12,00,56,21.20
2021,08,12,00,57,21.20
2021,08,12,00,58,21.20
2021,08,12,00,59,21.20
2021,08,12,01,00,21.20
2021,08,12,01,01,21.20
2021,08,12,01,02,21.20
2021,08,12,01,03,21.20
2021,08,12,01,04,21.20
2021,08,12,01,05,21.20
2021,08,12,01,06,21.20
2021,08,12,01,07,21.20
2021,08,12,01,08,21.20
2021,08,12,01,09,21.10
2021,08,12,01,10,21.10
2021,08,12,01,11,21.10
2021,08,12,01,12,21.00
2021,08,12,01,13,21.00
2021,08,12,01,14,20.90
2021,08,12,01,15,20.90
2021,08,12,01,16,20.90
2021,08,12,01,17,20.80
2021,08,12,01,18,20.80
2021,08,12,01,19,20.80
2021,08,12,01,20,20.70
2021,08,12,01,21,20.70
2021,08,12,01,22,20.60
2021,08,12,01,23,20.60
2021,08,12,01,24,20.60
2021,08,12,01,25,20.50
2021,08,12,01,26,20.50
2021,08,12,01,27,20.50
2021,08,12,01,28,20.40
2021,08,12,01,29,20.40
2021,08,12,01,30,20.30
2021,08,12,01,31,20.30
2021,08,12,01,32,20.30
2021,08,12,01,33,20.30
2021,08,12,01,34,20.30
2021,08,12,01,35,20.30
2021,08,12,01,36,20.30
2021,08,12,01,37,20.30
2021,08,12,01,38,20.20
2021,08,12,01,39,20.20
2021,08,12,01,40,20.20
2021,08,12,01,41,20.20
2021,08,12,01,42,20.20
2021,08,12,01,43,20.20
2021,08,12,01,44,20.20
2021,08,12,01,45,20.10
2021,08,12,01,46,20.10
2021,08,12,01,47,20.10
2021,08,12,01,48,20.10
2021,08,12,01,49,20.10
2021,08,12,01,50,20.10
2021,08,12,01,51,20.10
2021,08,12,01,52,20.00
2021,08,12,01,53,20.00
2021,08,12,01,54,20.00
2021,08,12,01,55,19.90
2021,08,12,01,56,19.90
2021,08,12,01,57,19.90
2021,08,12,01,58,19.90
2021,08,12,01,59,19.80
2021,08,12,02,00,19.80
2021,08,12,02,01,19.80
2021,08,12,02,02,19.80
2021,08,12,02,03,19.80
2021,08,12,02,04,19.70
2021,08,12,02,05,19.70
2021,08,12,02,06,19.70
2021,08,12,02,07,19.60
2021,08,12,02,08,19.60
2021,08,12,02,09,19.60
2021,08,12,02,10,19.60
2021,08,12,02,11,19.50
2021,08,12,02,12,19.50
2021,08,12,02,13,19.40
2021,08,12,02,14,19.40
2021,08,12,02,15,19.40
2021,08,12,02,16,19.30
2021,08,12,02,17,19.30
2021,08,12,02,18,19.30
2021,08,12,02,19,19.30
2021,08,12,02,20,19.30
2021,08,12,02,21,19.20
2021,08,12,02,22,19.20
2021,08,12,02,23,19.20
2021,08,12,02,24,19.20
2021,08,12,02,25,19.20
2021,08,12,02,26,19.20
2021,08,12,02,27,19.20
2021,08,12,02,28,19.20
2021,08,12,02,29,19.10
2021,08,12,02,30,19.10
2021,08,12,02,31,19.10
2021,08,12,02,32,19.10
2021,08,12,02,33,19.10
2021,08,12,02,34,19.00
2021,08,12,02,35,19.00
2021,08,12,02,36,19.00
2021,08,12,02,37,19.00
2021,08,12,02,38,19.00
2021,08,12,02,39,19.00
2021,08,12,02,40,18.90
2021,08,12,02,41,18.90
2021,08,12,02,42,18.90
2021,08,12,02,43,18.90
2021,08,12,02,44,18.90
2021,08,12,02,45,18.90
2021,08,12,02,46,18.90
2021,08,12,02,47,18.90
2021,08,12,02,48,18.90
2021,08,12,02,49,18.90
2021,08,12,02,50,18.90
2021,08,12,02,51,18.90
2021,08,12,02,52,18.90
2021,08,12,02,53,18.90
2021,08,12,02,54,18.90
2021,08,12,02,55,18.80
2021,08,12,02,56,18.80
2021,08,12,02,57,18.80
2021,08,12,02,58,18.80
2021,08,12,02,59,18.80
2021,08,12,03,00,18.80
2021,08,12,03,01,18.80
2021,08,12,03,02,18.80
2021,08,12,03,03,18.80
2021,08,12,03,04,18.80
2021,08,12,03,05,18.80
2021,08,12,03,06,18.80
2021,08,12,03,07,18.80
2021,08,12,03,08,18.80
2021,08,12,03,09,18.80
2021,08,12,03,10,18.90
2021,08,12,03,11,18.90
2021,08,12,03,12,18.90
2021,08,12,03,13,19.00
2021,08,12,03,14,19.00
2021,08,12,03,15,19.00
2021,08,12,03,16,19.00
2021,08,12,03,17,19.00
2021,08,12,03,18,19.00
2021,08,12,03,19,19.00
2021,08,12,03,20,19.10
2021,08,12,03,21,19.00
2021,08,12,03,22,19.00
2021,08,12,03,23,19.10
2021,08,12,03,24,19.10
2021,08,12,03,25,19.10
2021,08,12,03,26,19.10
2021,08,12,03,27,19.20
2021,08,12,03,28,19.20
2021,08,12,03,29,19.20
2021,08,12,03,30,19.20
2021,08,12,03,31,19.20
2021,08,12,03,32,19.10
2021,08,12,03,33,19.10
2021,08,12,03,34,19.10
2021,08,12,03,35,19.10
2021,08,12,03,36,19.10
2021,08,12,03,37,19.10
2021,08,12,03,38,19.10
2021,08,12,03,39,19.10
2021,08,12,03,40,19.00
2021,08,12,03,41,19.00
2021,08,12,03,42,19.00
2021,08,12,03,43,19.00
2021,08,12,03,44,19.00
2021,08,12,03,45,19.00
2021,08,12,03,46,19.00
2021,08,12,03,47,19.00
2021,08,12,03,48,19.00
2021,08,12,03,49,19.00
2021,08,12,03,50,19.00
2021,08,12,03,51,19.00
2021,08,12,03,52,19.00
2021,08,12,03,53,19.00
2021,08,12,03,54,19.00
2021,08,12,03,55,19.00
2021,08,12,03,56,19.00
2021,08,12,03,57,19.00
2021,08,12,03,58,19.00
2021,08,12,03,59,19.00
2021,08,12,04,00,19.00
2021,08,12,04,01,19.00
2021,08,12,04,02,19.00
2021,08,12,04,03,19.00
2021,08,12,04,04,18.90
2021,08,12,04,05,18.90
2021,08,12,04,06,18.90
2021,08,12,04,07,18.90
2021,08,12,04,08,19.00
2021,08,12,04,09,18.90
2021,08,12,04,10,18.90
2021,08,12,04,11,18.90
2021,08,12,04,12,18.90
2021,08,12,04,13,18.90
2021,08,12,04,14,18.90
2021,08,12,04,15,18.80
2021,08,12,04,16,18.80
2021,08,12,04,17,18.80
2021,08,12,04,18,18.80
2021,08,12,04,19,18.80
2021,08,12,04,20,18.80
2021,08,12,04,21,18.80
2021,08,12,04,22,18.80
2021,08,12,04,23,18.70
2021,08,12,04,24,18.70
2021,08,12,04,25,18.70
2021,08,12,04,26,18.70
2021,08,12,04,27,18.70
2021,08,12,04,28,18.70
2021,08,12,04,29,18.70
2021,08,12,04,30,18.70
2021,08,12,04,31,18.70
2021,08,12,04,32,18.70
2021,08,12,04,33,18.70
2021,08,12,04,34,18.70
2021,08,12,04,35,18.70
2021,08,12,04,36,18.70
2021,08,12,04,37,18.70
2021,08,12,04,38,18.70
2021,08,12,04,39,18.60
2021,08,12,04,40,18.60
2021,08,12,04,41,18.60
2021,08,12,04,42,18.60
2021,08,12,04,43,18.60
2021,08,12,04,44,18.60
2021,08,12,04,45,18.60
2021,08,12,04,46,18.60
2021,08,12,04,47,18.60
2021,08,12,04,48,18.60
2021,08,12,04,49,18.50
2021,08,12,04,50,18.50
2021,08,12,04,51,18.50
2021,08,12,04,52,18.50
2021,08,12,04,53,18.50
2021,08,12,04,54,18.50
2021,08,12,04,55,18.50
2021,08,12,04,56,18.50
2021,08,12,04,57,18.50
2021,08,12,04,58,18.50
2021,08,12,04,59,18.50
2021,08,12,05,00,18.50
2021,08,12,05,01,18.50
2021,08,12,05,02,18.40
2021,08,12,05,03,18.40
2021,08,12,05,04,18.40
2021,08,12,05,05,18.40
2021,08,12,05,06,18.40
2021,08,12,05,07,18.40
2021,08,12,05,08,18.40
2021,08,12,05,09,18.40
2021,08,12,05,10,18.40
2021,08,12,05,11,18.40
2021,08,12,05,12,18.30
2021,08,12,05,13,18.30
2021,08,12,05,14,18.30
2021,08,12,05,15,18.30
2021,08,12,05,16,18.30
2021,08,12,05,17,18.30
2021,08,12,05,18,18.30
2021,08,12,05,19,18.30
2021,08,12,05,20,18.30
2021,08,12,05,21,18.30
2021,08,12,05,22,18.30
2021,08,12,05,23,18.30
2021,08,12,05,24,18.20
2021,08,12,05,25,18.20
2021,08,12,05,26,18.20
2021,08,12,05,27,18.20
2021,08,12,05,28,18.20
2021,08,12,05,29,18.20
2021,08,12,05,30,18.20
2021,08,12,05,31,18.20
2021,08,12,05,32,18.20
2021,08,12,05,33,18.20
2021,08,12,05,34,18.20
2021,08,12,05,35,18.20
2021,08,12,05,36,18.10
2021,08,12,05,37,18.10
2021,08,12,05,38,18.10
2021,08,12,05,39,18.10
2021,08,12,05,40,18.10
2021,08,12,05,41,18.10
2021,08,12,05,42,18.10
2021,08,12,05,43,18.10
2021,08,12,05,44,18.10
2021,08,12,05,45,18.10
2021,08,12,05,46,18.10
2021,08,12,05,47,18.10
2021,08,12,05,48,18.10
2021,08,12,05,49,18.10
2021,08,12,05,50,18.10
2021,08,12,05,51,18.10
2021,08,12,05,52,18.10
2021,08,12,05,53,18.10
2021,08,12,05,54,18.10
2021,08,12,05,55,18.10
2021,08,12,05,56,18.10
2021,08,12,05,57,18.10
2021,08,12,05,58,18.10
2021,08,12,05,59,18.10
2021,08,12,06,00,18.10
2021,08,12,06,01,18.10
2021,08,12,06,02,18.10
2021,08,12,06,03,18.10
2021,08,12,06,04,18.10
2021,08,12,06,05,18.10
2021,08,12,06,06,18.10
2021,08,12,06,07,18.10
2021,08,12,06,08,18.10
2021,08,12,06,09,18.10
2021,08,12,06,10,18.10
2021,08,12,06,11,18.10
2021,08,12,06,12,18.10
2021,08,12,06,13,18.10
2021,08,12,06,14,18.10
2021,08,12,06,15,18.10
2021,08,12,06,16,18.10
2021,08,12,06,17,18.10
2021,08,12,06,18,18.10
2021,08,12,06,19,18.10
2021,08,12,06,20,18.10
2021,08,12,06,21,18.10
2021,08,12,06,22,18.10
2021,08,12,06,23,18.10
2021,08,12,06,24,18.10
2021,08,12,06,25,18.10
2021,08,12,06,26,18.10
2021,08,12,06,27,18.10
2021,08,12,06,28,18.10
2021,08,12,06,29,18.10
2021,08,12,06,30,18.10
2021,08,12,06,31,18.10
2021,08,12,06,32,18.10
2021,08,12,06,33,18.20
2021,08,12,06,34,18.20
2021,08,12,06,35,18.20
2021,08,12,06,36,18.20
2021,08,12,06,37,18.20
2021,08,12,06,38,18.20
2021,08,12,06,39,18.20
2021,08,12,06,40,18.30
2021,08,12,06,41,18.30
2021,08,12,06,42,18.30
2021,08,12,06,43,18.30
2021,08,12,06,44,18.30
2021,08,12,06,45,18.30
2021,08,12,06,46,18.30
2021,08,12,06,47,18.30
2021,08,12,06,48,18.30
2021,08,12,06,49,18.40
2021,08,12,06,50,18.40
2021,08,12,06,51,18.40
2021,08,12,06,52,18.40
2021,08,12,06,53,18.40
2021,08,12,06,54,18.40
2021,08,12,06,55,18.40
2021,08,12,06,56,18.50
2021,08,12,06,57,18.50
2021,08,12,06,58,18.50
2021,08,12,06,59,18.50
2021,08,12,07,00,18.50
2021,08,12,07,01,18.60
2021,08,12,07,02,18.60
2021,08,12,07,03,18.60
2021,08,12,07,04,18.60
2021,08,12,07,05,18.60
2021,08,12,07,06,18.60
2021,08,12,07,07,18.60
2021,08,12,07,08,18.60
2021,08,12,07,09,18.60
2021,08,12,07,10,18.60
2021,08,12,07,11,18.60
2021,08,12,07,12,18.70
2021,08,12,07,13,18.70
2021,08,12,07,14,18.80
2021,08,12,07,15,18.80
2021,08,12,07,16,18.80
2021,08,12,07,17,18.90
2021,08,12,07,18,19.00
2021,08,12,07,19,19.00
2021,08,12,07,20,19.10
2021,08,12,07,21,19.20
2021,08,12,07,22,19.20
2021,08,12,07,23,19.30
2021,08,12,07,24,19.40
2021,08,12,07,25,19.50
2021,08,12,07,26,19.60
2021,08,12,07,27,19.60
2021,08,12,07,28,19.70
2021,08,12,07,29,19.70
2021,08,12,07,30,19.80
2021,08,12,07,31,19.80
2021,08,12,07,32,19.90
2021,08,12,07,33,19.90
2021,08,12,07,34,20.00
2021,08,12,07,35,20.00
2021,08,12,07,36,20.10
2021,08,12,07,37,20.10
2021,08,12,07,38,20.20
2021,08,12,07,39,20.30
2021,08,12,07,40,20.30
2021,08,12,07,41,20.30
2021,08,12,07,42,20.40
2021,08,12,07,43,20.40
2021,08,12,07,44,20.50
2021,08,12,07,45,20.50
2021,08,12,07,46,20.60
2021,08,12,07,47,20.70
2021,08,12,07,48,20.70
2021,08,12,07,49,20.80
2021,08,12,07,50,20.80
2021,08,12,07,51,20.80
2021,08,12,07,52,20.90
2021,08,12,07,53,20.90
2021,08,12,07,54,21.00
2021,08,12,07,55,21.00
2021,08,12,07,56,21.10
2021,08,12,07,57,21.10
2021,08,12,07,58,21.20
2021,08,12,07,59,21.20
2021,08,12,08,00,21.30
2021,08,12,08,01,21.30
2021,08,12,08,02,21.40
2021,08,12,08,03,21.40
2021,08,12,08,04,21.50
2021,08,12,08,05,21.60
2021,08,12,08,06,21.60
2021,08,12,08,07,21.70
2021,08,12,08,08,21.70
2021,08,12,08,09,21.80
2021,08,12,08,10,21.80
2021,08,12,08,11,21.80
2021,08,12,08,12,21.80
2021,08,12,08,13,21.90
2021,08,12,08,14,21.90
2021,08,12,08,15,21.90
2021,08,12,08,16,21.90
2021,08,12,08,17,21.90
2021,08,12,08,18,21.90
2021,08,12,08,19,22.00
2021,08,12,08,20,22.00
2021,08,12,08,21,22.00
2021,08,12,08,22,22.10
2021,08,12,08,23,22.10
2021,08,12,08,24,22.20
2021,08,12,08,25,22.20
2021,08,12,08,26,22.30
2021,08,12,08,27,22.30
2021,08,12,08,28,22.40
2021,08,12,08,29,22.50
2021,08,12,08,30,22.50
2021,08,12,08,31,22.60
2021,08,12,08,32,22.70
2021,08,12,08,33,22.80
2021,08,12,08,34,22.90
2021,08,12,08,35,23.00
2021,08,12,08,36,23.10
2021,08,12,08,37,23.20
2021,08,12,08,38,23.30
2021,08,12,08,39,23.40
2021,08,12,08,40,23.50
2021,08,12,08,41,23.60
2021,08,12,08,42,23.60
2021,08,12,08,43,23.70
2021,08,12,08,44,23.80
2021,08,12,08,45,23.90
2021,08,12,08,46,23.90
2021,08,12,08,47,24.00
2021,08,12,08,48,24.00
2021,08,12,08,49,24.10
2021,08,12,08,50,24.10
2021,08,12,08,51,24.20
2021,08,12,08,52,24.20
2021,08,12,08,53,24.20
2021,08,12,08,54,24.20
2021,08,12,08,55,24.20
2021,08,12,08,56,24.20
2021,08,12,08,57,24.20
2021,08,12,08,58,24.20
2021,08,12,08,59,24.20
2021,08,12,09,00,24.20
2021,08,12,09,01,24.20
2021,08,12,09,02,24.30
2021,08,12,09,03,24.30
2021,08,12,09,04,24.30
2021,08,12,09,05,24.30
2021,08,12,09,06,24.30
2021,08,12,09,07,24.30
2021,08,12,09,08,24.40
2021,08,12,09,09,24.40
2021,08,12,09,10,24.40
2021,08,12,09,11,24.40
2021,08,12,09,12,24.40
2021,08,12,09,13,24.50
2021,08,12,09,14,24.50
2021,08,12,09,15,24.60
2021,08,12,09,16,24.60
2021,08,12,09,17,24.70
2021,08,12,09,18,24.70
2021,08,12,09,19,24.80
2021,08,12,09,20,24.80
2021,08,12,09,21,24.90
2021,08,12,09,22,24.90
2021,08,12,09,23,25.00
2021,08,12,09,24,25.00
2021,08,12,09,25,25.10
2021,08,12,09,26,25.10
2021,08,12,09,27,25.00
2021,08,12,09,28,25.00
2021,08,12,09,29,25.00
2021,08,12,09,30,25.00
2021,08,12,09,31,25.00
2021,08,12,09,32,25.00
2021,08,12,09,33,25.00
2021,08,12,09,34,25.00
2021,08,12,09,35,25.00
2021,08,12,09,36,25.10
2021,08,12,09,37,25.10
2021,08,12,09,38,25.10
2021,08,12,09,39,25.10
2021,08,12,09,40,25.10
2021,08,12,09,41,25.20
2021,08,12,09,42,25.20
2021,08,12,09,43,25.20
2021,08,12,09,44,25.30
2021,08,12,09,45,25.30
2021,08,12,09,46,25.40
2021,08,12,09,47,25.40
2021,08,12,09,48,25.40
2021,08,12,09,49,25.40
2021,08,12,09,50,25.50
2021,08,12,09,51,25.50
2021,08,12,09,52,25.50
2021,08,12,09,53,25.50
2021,08,12,09,54,25.50
2021,08,12,09,55,25.50
2021,08,12,09,56,25.50
2021,08,12,09,57,25.60
2021,08,12,09,58,25.50
2021,08,12,09,59,25.60
2021,08,12,10,00,25.60
2021,08,12,10,01,25.60
2021,08,12,10,02,25.70
2021,08,12,10,03,25.70
2021,08,12,10,04,25.70
2021,08,12,10,05,25.70
2021,08,12,10,06,25.80
2021,08,12,10,07,25.80
2021,08,12,10,08,25.80
2021,08,12,10,09,25.80
2021,08,12,10,10,25.80
2021,08,12,10,11,25.90
2021,08,12,10,12,25.90
2021,08,12,10,13,25.90
2021,08,12,10,14,25.90
2021,08,12,10,15,26.00
2021,08,12,10,16,26.00
2021,08,12,10,17,26.00
2021,08,12,10,18,26.00
2021,08,12,10,19,26.00
2021,08,12,10,20,26.00
2021,08,12,10,21,26.10
2021,08,12,10,22,26.00
2021,08,12,10,23,26.00
2021,08,12,10,24,26.00
2021,08,12,10,25,26.00
2021,08,12,10,26,26.00
2021,08,12,10,27,26.00
2021,08,12,10,28,26.10
2021,08,12,10,29,26.00
2021,08,12,10,30,26.10
2021,08,12,10,31,26.10
2021,08,12,10,32,26.10
2021,08,12,10,33,26.20
2021,08,12,10,34,26.20
2021,08,12,10,35,26.30
2021,08,12,10,36,26.40
2021,08,12,10,37,26.50
2021,08,12,10,38,26.50
2021,08,12,10,39,26.60
2021,08,12,10,40,26.70
2021,08,12,10,41,26.80
2021,08,12,10,42,26.90
2021,08,12,10,43,27.00
2021,08,12,10,44,27.10
2021,08,12,10,45,27.10
2021,08,12,10,46,27.20
2021,08,12,10,47,27.30
2021,08,12,10,48,27.40
2021,08,12,10,49,27.50
2021,08,12,10,50,27.60
2021,08,12,10,51,27.60
2021,08,12,10,52,27.70
2021,08,12,10,53,27.80
2021,08,12,10,54,27.80
2021,08,12,10,55,27.90
2021,08,12,10,56,27.90
2021,08,12,10,57,27.90
2021,08,12,10,58,28.00
2021,08,12,10,59,28.00
2021,08,12,11,00,28.00
2021,08,12,11,01,28.00
2021,08,12,11,02,28.00
2021,08,12,11,03,28.00
2021,08,12,11,04,28.00
2021,08,12,11,05,27.90
2021,08,12,11,06,27.90
2021,08,12,11,07,27.90
2021,08,12,11,08,27.90
2021,08,12,11,09,28.00
2021,08,12,11,10,28.00
2021,08,12,11,11,28.10
2021,08,12,11,12,28.10
2021,08,12,11,13,28.10
2021,08,12,11,14,28.20
2021,08,12,11,15,28.20
2021,08,12,11,16,28.20
2021,08,12,11,17,28.30
2021,08,12,11,18,28.30
2021,08,12,11,19,28.40
2021,08,12,11,20,28.50
2021,08,12,11,21,28.60
2021,08,12,11,22,28.70
2021,08,12,11,23,28.80
2021,08,12,11,24,28.90
2021,08,12,11,25,28.90
2021,08,12,11,26,29.00
2021,08,12,11,27,29.10
2021,08,12,11,28,29.20
2021,08,12,11,29,29.30
2021,08,12,11,30,29.40
2021,08,12,11,31,29.50
2021,08,12,11,32,29.60
2021,08,12,11,33,29.60
2021,08,12,11,34,29.70
2021,08,12,11,35,29.80
2021,08,12,11,36,29.80
2021,08,12,11,37,29.90
2021,08,12,11,38,29.90
2021,08,12,11,39,30.00
2021,08,12,11,40,30.10
2021,08,12,11,41,30.10
2021,08,12,11,42,30.10
2021,08,12,11,43,30.10
2021,08,12,11,44,30.20
2021,08,12,11,45,30.20
2021,08,12,11,46,30.20
2021,08,12,11,47,30.10
2021,08,12,11,48,30.00
2021,08,12,11,49,30.00
2021,08,12,11,50,29.90
2021,08,12,11,51,29.90
2021,08,12,11,52,29.90
2021,08,12,11,53,29.90
2021,08,12,11,54,29.90
2021,08,12,11,55,29.90
2021,08,12,11,56,29.90
2021,08,12,11,57,29.90
2021,08,12,11,58,29.90
2021,08,12,11,59,30.00
2021,08,12,12,00,30.00
2021,08,12,12,01,30.00
2021,08,12,12,02,30.10
2021,08,12,12,03,30.10
2021,08,12,12,04,30.20
2021,08,12,12,05,30.30
2021,08,12,12,06,30.30
2021,08,12,12,07,30.40
2021,08,12,12,08,30.50
2021,08,12,12,09,30.60
2021,08,12,12,10,30.60
2021,08,12,12,11,30.70
2021,08,12,12,12,30.70
2021,08,12,12,13,30.80
2021,08,12,12,14,30.80
2021,08,12,12,15,30.80
2021,08,12,12,16,30.80
2021,08,12,12,17,30.80
2021,08,12,12,18,30.80
2021,08,12,12,19,30.80
2021,08,12,12,20,30.70
2021,08,12,12,21,30.80
2021,08,12,12,22,30.80
2021,08,12,12,23,30.80
2021,08,12,12,24,30.80
2021,08,12,12,25,30.80
2021,08,12,12,26,30.80
2021,08,12,12,27,30.80
2021,08,12,12,28,30.80
2021,08,12,12,29,30.80
2021,08,12,12,30,30.80
2021,08,12,12,31,30.80
2021,08,12,12,32,30.80
2021,08,12,12,33,30.80
2021,08,12,12,34,30.80
2021,08,12,12,35,30.90
2021,08,12,12,36,30.90
2021,08,12,12,37,30.80
2021,08,12,12,38,30.80
2021,08,12,12,39,30.70
2021,08,12,12,40,30.70
2021,08,12,12,41,30.70
2021,08,12,12,42,30.70
2021,08,12,12,43,30.70
2021,08,12,12,44,30.70
2021,08,12,12,45,30.70
2021,08,12,12,46,30.70
2021,08,12,12,47,30.80
2021,08,12,12,48,30.70
2021,08,12,12,49,30.70
2021,08,12,12,50,30.70
2021,08,12,12,51,30.70
2021,08,12,12,52,30.70
2021,08,12,12,53,30.80
2021,08,12,12,54,30.80
2021,08,12,12,55,30.80
2021,08,12,12,56,30.80
2021,08,12,12,57,30.90
2021,08,12,12,58,30.90
2021,08,12,12,59,30.90
2021,08,12,13,00,31.00
2021,08,12,13,01,31.00
2021,08,12,13,02,31.10
2021,08,12,13,03,31.10
2021,08,12,13,04,31.10
2021,08,12,13,05,31.20
2021,08,12,13,06,31.20
2021,08,12,13,07,31.20
2021,08,12,13,08,31.20
2021,08,12,13,09,31.30
2021,08,12,13,10,31.30
2021,08,12,13,11,31.40
2021,08,12,13,12,31.40
2021,08,12,13,13,31.40
2021,08,12,13,14,31.40
2021,08,12,13,15,31.40
2021,08,12,13,16,31.40
2021,08,12,13,17,31.40
2021,08,12,13,18,31.40
2021,08,12,13,19,31.30
2021,08,12,13,20,31.30
2021,08,12,13,21,31.30
2021,08,12,13,22,31.30
2021,08,12,13,23,31.30
2021,08,12,13,24,31.40
2021,08,12,13,25,31.40
2021,08,12,13,26,31.50
2021,08,12,13,27,31.60
2021,08,12,13,28,31.60
2021,08,12,13,29,31.60
2021,08,12,13,30,31.60
2021,08,12,13,31,31.60
2021,08,12,13,32,31.70
2021,08,12,13,33,31.70
2021,08,12,13,34,31.70
2021,08,12,13,35,31.70
2021,08,12,13,36,31.70
2021,08,12,13,37,31.70
2021,08,12,13,38,31.70
2021,08,12,13,39,31.70
2021,08,12,13,40,31.70
2021,08,12,13,41,31.70
2021,08,12,13,42,31.70
2021,08,12,13,43,31.70
2021,08,12,13,44,31.70
2021,08,12,13,45,31.70
2021,08,12,13,46,31.80
2021,08,12,13,47,31.80
2021,08,12,13,48,31.80
2021,08,12,13,49,31.90
2021,08,12,13,50,31.90
2021,08,12,13,51,31.90
2021,08,12,13,52,32.00
2021,08,12,13,53,32.00
2021,08,12,13,54,32.00
2021,08,12,13,55,32.10
2021,08,12,13,56,32.10
2021,08,12,13,57,32.20
2021,08,12,13,58,32.20
2021,08,12,13,59,32.30
2021,08,12,14,00,32.30
2021,08,12,14,01,32.30
2021,08,12,14,02,32.30
2021,08,12,14,03,32.40
2021,08,12,14,04,32.40
2021,08,12,14,05,32.40
2021,08,12,14,06,32.50
2021,08,12,14,07,32.50
2021,08,12,14,08,32.60
2021,08,12,14,09,32.60
2021,08,12,14,10,32.60
2021,08,12,14,11,32.60
2021,08,12,14,12,32.60
2021,08,12,14,13,32.60
2021,08,12,14,14,32.70
2021,08,12,14,15,32.70
2021,08,12,14,16,32.70
2021,08,12,14,17,32.80
2021,08,12,14,18,32.80
2021,08,12,14,19,32.80
2021,08,12,14,20,32.80
2021,08,12,14,21,32.90
2021,08,12,14,22,32.90
2021,08,12,14,23,33.00
2021,08,12,14,24,33.00
2021,08,12,14,25,33.10
2021,08,12,14,26,33.10
2021,08,12,14,27,33.10
2021,08,12,14,28,33.10
2021,08,12,14,29,33.10
2021,08,12,14,30,33.20
2021,08,12,14,31,33.20
2021,08,12,14,32,33.20
2021,08,12,14,33,33.20
2021,08,12,14,34,33.30
2021,08,12,14,35,33.30
2021,08,12,14,36,33.40
2021,08,12,14,37,33.40
2021,08,12,14,38,33.40
2021,08,12,14,39,33.50
2021,08,12,14,40,33.50
2021,08,12,14,41,33.60
2021,08,12,14,42,33.60
2021,08,12,14,43,33.60
2021,08,12,14,44,33.70
2021,08,12,14,45,33.70
2021,08,12,14,46,33.80
2021,08,12,14,47,33.80
2021,08,12,14,48,33.80
2021,08,12,14,49,33.80
2021,08,12,14,50,33.90
2021,08,12,14,51,33.90
2021,08,12,14,52,34.00
2021,08,12,14,53,34.00
2021,08,12,14,54,34.00
2021,08,12,14,55,34.10
2021,08,12,14,56,34.10
2021,08,12,14,57,34.20
2021,08,12,14,58,34.20
2021,08,12,14,59,34.20
2021,08,12,15,00,34.20
2021,08,12,15,01,34.20
2021,08,12,15,02,34.20
2021,08,12,15,03,34.10
2021,08,12,15,04,34.10
2021,08,12,15,05,34.10
2021,08,12,15,06,34.10
2021,08,12,15,07,34.10
2021,08,12,15,08,34.10
2021,08,12,15,09,34.10
2021,08,12,15,10,34.10
2021,08,12,15,11,34.10
2021,08,12,15,12,34.10
2021,08,12,15,13,34.10
2021,08,12,15,14,34.10
2021,08,12,15,15,34.10
2021,08,12,15,16,34.10
2021,08,12,15,17,34.10
2021,08,12,15,18,34.10
2021,08,12,15,19,34.10
2021,08,12,15,20,34.10
2021,08,12,15,21,34.10
2021,08,12,15,22,34.00
2021,08,12,15,23,34.00
2021,08,12,15,24,34.00
2021,08,12,15,25,34.00
2021,08,12,15,26,34.00
2021,08,12,15,27,34.00
2021,08,12,15,28,34.10
2021,08,12,15,29,34.10
2021,08,12,15,30,34.10
2021,08,12,15,31,34.10
2021,08,12,15,32,34.10
2021,08,12,15,33,34.10
2021,08,12,15,34,34.10
2021,08,12,15,35,34.10
2021,08,12,15,36,34.10
2021,08,12,15,37,34.10
2021,08,12,15,38,34.10
2021,08,12,15,39,34.10
2021,08,12,15,40,34.20
2021,08,12,15,41,34.20
2021,08,12,15,42,34.20
2021,08,12,15,43,34.30
2021,08,12,15,44,34.30
2021,08,12,15,45,34.40
2021,08,12,15,46,34.40
2021,08,12,15,47,34.40
2021,08,12,15,48,34.40
2021,08,12,15,49,34.40
2021,08,12,15,50,34.40
2021,08,12,15,51,34.40
2021,08,12,15,52,34.40
2021,08,12,15,53,34.40
2021,08,12,15,54,34.40
2021,08,12,15,55,34.40
2021,08,12,15,56,34.40
2021,08,12,15,57,34.40
2021,08,12,15,58,34.40
2021,08,12,15,59,34.30
2021,08,12,16,00,34.40
2021,08,12,16,01,34.40
2021,08,12,16,02,34.40
2021,08,12,16,03,34.50
2021,08,12,16,04,34.50
2021,08,12,16,05,34.60
2021,08,12,16,06,34.70
2021,08,12,16,07,34.70
2021,08,12,16,08,34.70
2021,08,12,16,09,34.80
2021,08,12,16,10,34.80
2021,08,12,16,11,34.80
2021,08,12,16,12,34.90
2021,08,12,16,13,34.90
2021,08,12,16,14,34.90
2021,08,12,16,15,35.00
2021,08,12,16,16,35.00
2021,08,12,16,17,35.00
2021,08,12,16,18,35.10
2021,08,12,16,19,35.10
2021,08,12,16,20,35.10
2021,08,12,16,21,35.10
2021,08,12,16,22,35.10
2021,08,12,16,23,35.10
2021,08,12,16,24,35.10
2021,08,12,16,25,35.10
2021,08,12,16,26,35.10
2021,08,12,16,27,35.20
2021,08,12,16,28,35.20
2021,08,12,16,29,35.20
2021,08,12,16,30,35.30
2021,08,12,16,31,35.30
2021,08,12,16,32,35.40
2021,08,12,16,33,35.40
2021,08,12,16,34,35.40
2021,08,12,16,35,35.40
2021,08,12,16,36,35.50
2021,08,12,16,37,35.50
2021,08,12,16,38,35.50
2021,08,12,16,39,35.60
2021,08,12,16,40,35.60
2021,08,12,16,41,35.60
2021,08,12,16,42,35.60
2021,08,12,16,43,35.70
2021,08,12,16,44,35.70
2021,08,12,16,45,35.70
2021,08,12,16,46,35.70
2021,08,12,16,47,35.70
2021,08,12,16,48,35.70
2021,08,12,16,49,35.70
2021,08,12,16,50,35.70
2021,08,12,16,51,35.70
2021,08,12,16,52,35.70
2021,08,12,16,53,35.70
2021,08,12,16,54,35.70
2021,08,12,16,55,35.70
2021,08,12,16,56,35.70
2021,08,12,16,57,35.80
2021,08,12,16,58,35.80
2021,08,12,16,59,35.80
2021,08,12,17,00,35.80
2021,08,12,17,01,35.80
2021,08,12,17,02,35.80
2021,08,12,17,03,35.80
2021,08,12,17,04,35.80
2021,08,12,17,05,35.80
2021,08,12,17,06,35.80
2021,08,12,17,07,35.80
2021,08,12,17,08,35.80
2021,08,12,17,09,35.80
2021,08,12,17,10,35.70
2021,08,12,17,11,35.70
2021,08,12,17,12,35.70
2021,08,12,17,13,35.60
2021,08,12,17,14,35.60
2021,08,12,17,15,35.60
2021,08,12,17,16,35.60
2021,08,12,17,17,35.50
2021,08,12,17,18,35.50
2021,08,12,17,19,35.50